FW3073 Weather Reports


Display with metric or nautical units.
time (UTC)temp
F
wind
direction
speed
MPH
gust
MPH
rain 1hr
in
rain 24hr
in
rain mn
in
humidity
%
barometer
mb
20260903192003 67 211 1.0 4.0 0.00 0.00 0.00 74 1016.5
20260903191003 67 204 0.0 2.0 0.00 0.00 0.00 74 1016.5
20260903190003 67 196 1.0 3.0 0.00 0.00 0.00 74 1016.9
20260903185003 67 180 1.0 3.0 0.00 0.00 0.00 72 1016.9
20260903184213 67 188 1.0 2.0 0.00 0.00 0.00 72 1016.5
20260903183003 67 186 0.0 1.0 0.00 0.00 0.00 74 1017.2
20260903182003 68 206 1.0 3.0 0.00 0.00 0.00 70 1016.9
20260903181212 69 196 1.0 4.0 0.00 0.00 0.00 67 1017.6
20260903180003 70 202 0.0 2.0 0.00 0.00 0.00 68 1017.2
20260903175003 70 202 1.0 3.0 0.00 0.00 0.00 68 1017.6
20260903174003 70 198 1.0 4.0 0.00 0.00 0.00 69 1017.6
20260903173003 70 170 1.0 3.0 0.00 0.00 0.00 68 1017.6
20260903172003 70 195 1.0 3.0 0.00 0.00 0.00 71 1017.6
20260903171214 69 204 1.0 7.0 0.00 0.00 0.00 72 1017.9
20260903170003 69 185 1.0 4.0 0.00 0.00 0.00 71 1017.9
20260903165214 70 149 1.0 3.0 0.00 0.00 0.00 71 1017.6
20260903164003 70 161 1.0 3.0 0.00 0.00 0.00 70 1017.6
20260903163214 70 181 1.0 4.0 0.00 0.00 0.00 69 1017.9
20260903162003 70 190 1.0 7.0 0.00 0.00 0.00 69 1017.6
20260903161003 70 172 1.0 3.0 0.00 0.00 0.00 71 1017.9
20260903160214 70 168 1.0 3.0 0.00 0.00 0.00 70 1017.9
20260903155003 70 182 1.0 6.0 0.00 0.00 0.00 68 1017.9
20260903154214 70 192 1.0 6.0 0.00 0.00 0.00 70 1017.9
20260903153003 71 143 1.0 3.0 0.00 0.00 0.00 71 1017.9
20260903152003 70 185 1.0 4.0 0.00 0.00 0.00 72 1018.2
20260903151003 70 187 2.0 6.0 0.00 0.00 0.00 71 1018.2
20260903150003 70 149 1.0 6.0 0.00 0.00 0.00 70 1017.9
20260903145003 68 187 1.0 4.0 0.00 0.00 0.00 73 1018.2
20260903144003 68 171 1.0 4.0 0.00 0.00 0.00 73 1018.2
20260903143004 69 190 1.0 7.0 0.00 0.00 0.00 73 1018.2
20260903142003 70 194 1.0 3.0 0.00 0.00 0.00 70 1018.2
20260903141003 70 192 1.0 6.0 0.00 0.00 0.00 72 1018.2
20260903140003 69 199 1.0 4.0 0.00 0.00 0.00 73 1018.2
20260903135213 70 194 1.0 4.0 0.00 0.00 0.00 71 1018.6
20260903134003 70 192 1.0 4.0 0.00 0.00 0.00 71 1018.6
20260903133003 69 179 1.0 3.0 0.00 0.00 0.00 74 1018.9
20260903132003 68 207 1.0 4.0 0.00 0.00 0.00 75 1018.6
20260903131213 68 199 1.0 3.0 0.00 0.00 0.00 76 1018.9
20260903130004 70 237 0.0 2.0 0.00 0.00 0.00 76 1018.9
20260903125003 68 154 1.0 4.0 0.00 0.00 0.00 81 1018.9
20260903124003 67 167 1.0 2.0 0.00 0.00 0.00 83 1018.9
20260903123003 66 138 0.0 2.0 0.00 0.00 0.00 85 1018.9
20260903122003 64 128 1.0 3.0 0.00 0.00 0.00 89 1018.9
20260903121003 64 219 0.0 3.0 0.00 0.00 0.00 92 1018.9
20260903120003 63 220 0.0 2.0 0.00 0.00 0.00 95 1019.3
20260903115003 61 1 0.0 1.0 0.00 0.00 0.00 99 1019.3
20260903114003 61 2 0.0 1.0 0.00 0.00 0.00 99 1019.6
20260903113214 60 1 0.0 1.0 0.00 0.00 0.00 99 1019.3
20260903112003 60 54 0.0 1.0 0.00 0.00 0.00 99 1019.3
20260903111214 60 49 0.0 1.0 0.00 0.00 0.00 99 1019.3
20260903110003 60 44 0.0 1.0 0.00 0.00 0.00 99 1019.3
20260903105003 60 42 0.0 2.0 0.00 0.00 0.00 99 1019.3
20260903104004 59 0 0.0 0.0 0.00 0.00 0.00 99 1019.3
20260903103214 58 0 0.0 0.0 0.00 0.00 0.00 99 1019.3
20260903102003 57 0 0.0 0.0 0.00 0.00 0.00 99 1019.3
20260903101213 57 0 0.0 0.0 0.00 0.00 0.00 99 1019.3
20260903100213 57 0 0.0 0.0 0.00 0.00 0.00 99 1019.3
20260903095003 57 0 0.0 0.0 0.00 0.00 0.00 99 1019.3
20260903094003 56 0 0.0 0.0 0.00 0.00 0.00 99 1019.3
20260903093003 56 0 0.0 0.0 0.00 0.00 0.00 99 1019.3
20260903092003 56 0 0.0 0.0 0.00 0.00 0.00 99 1019.3
20260903091003 55 0 0.0 0.0 0.00 0.00 0.00 99 1019.3
20260903090003 55 0 0.0 0.0 0.00 0.00 0.00 99 1019.3
20260903085003 55 0 0.0 0.0 0.00 0.00 0.00 99 1019.3
20260903084004 55 0 0.0 0.0 0.00 0.00 0.00 99 1019.6
20260903083004 56 0 0.0 0.0 0.00 0.00 0.00 99 1019.6
20260903082003 56 6 0.0 1.0 0.00 0.00 0.00 99 1019.3
20260903081213 56 0 0.0 0.0 0.00 0.00 0.00 99 1019.6
20260903080003 56 0 0.0 0.0 0.00 0.00 0.00 99 1019.6
20260903075003 56 0 0.0 0.0 0.00 0.00 0.00 99 1019.6
20260903074003 56 6 0.0 1.0 0.00 0.00 0.00 99 1019.6
20260903073212 56 6 0.0 1.0 0.00 0.00 0.00 99 1019.6
20260903072003 56 0 0.0 0.0 0.00 0.00 0.00 99 1019.9
20260903071003 56 0 0.0 0.0 0.00 0.00 0.00 99 1019.9
20260903070003 56 0 0.0 0.0 0.00 0.00 0.00 99 1019.9
20260903065003 56 0 0.0 0.0 0.00 0.00 0.00 99 1019.9
20260903064214 56 6 0.0 1.0 0.00 0.00 0.00 99 1019.9
20260903063003 55 6 0.0 1.0 0.00 0.00 0.00 99 1020.3
20260903062003 55 18 0.0 1.0 0.00 0.00 0.00 99 1020.3
20260903061003 55 0 0.0 0.0 0.00 0.00 0.00 99 1019.9
20260903060003 54 0 0.0 0.0 0.00 0.00 0.00 99 1019.9
20260903055003 54 0 0.0 0.0 0.00 0.00 0.00 99 1019.9
20260903054003 54 0 0.0 0.0 0.00 0.00 0.00 99 1019.3
20260903053003 54 0 0.0 0.0 0.00 0.00 0.00 99 1019.9
20260903052003 54 0 0.0 0.0 0.00 0.00 0.00 99 1019.9
20260903051003 54 0 0.0 0.0 0.00 0.00 0.00 99 1019.6
20260903050003 54 0 0.0 0.0 0.00 0.00 0.00 99 1019.9
20260903045003 54 0 0.0 0.0 0.00 0.00 0.00 99 1019.6
20260903044003 53 0 0.0 0.0 0.00 0.00 0.00 98 1019.9
20260903043003 53 0 0.0 0.0 0.00 0.00 0.00 98 1020.3
20260903042003 54 0 0.0 0.0 0.00 0.00 0.00 98 1020.3
20260903041003 54 0 0.0 0.0 0.00 0.00 0.00 98 1020.6
20260903040003 54 0 0.0 0.0 0.00 0.00 0.00 98 1020.6
20260903035003 54 0 0.0 0.0 0.00 0.00 0.00 97 1020.3
20260903034003 55 0 0.0 0.0 0.00 0.00 0.00 97 1020.3
20260903033003 55 0 0.0 0.0 0.00 0.00 0.00 97 1020.6
20260903032003 55 0 0.0 0.0 0.00 0.00 0.00 97 1020.6
20260903031003 55 0 0.0 0.0 0.00 0.00 0.00 97 1020.3
20260903030003 55 0 0.0 0.0 0.00 0.00 0.00 97 1020.3
20260903025003 55 0 0.0 0.0 0.00 0.00 0.00 97 1020.6
20260903024003 55 0 0.0 0.0 0.00 0.00 0.00 97 1020.6
20260903023003 55 0 0.0 0.0 0.00 0.00 0.00 96 1020.6
20260903022213 56 0 0.0 0.0 0.00 0.00 0.00 96 1020.6
20260903021003 55 0 0.0 0.0 0.00 0.00 0.00 96 1020.6
20260903020003 56 0 0.0 0.0 0.00 0.00 0.00 96 1021.0
20260903015003 56 0 0.0 0.0 0.00 0.00 0.00 96 1021.0
20260903014003 56 0 0.0 0.0 0.00 0.00 0.00 95 1021.0
20260903013214 56 21 0.0 1.0 0.00 0.00 0.00 95 1021.0
20260903012003 56 0 0.0 0.0 0.00 0.00 0.00 95 1021.0
20260903011003 56 0 0.0 0.0 0.00 0.00 0.00 94 1021.0
20260903010003 56 0 0.0 0.0 0.00 0.00 0.00 94 1021.0
20260903005003 56 0 0.0 0.0 0.00 0.00 0.00 92 1021.0
20260903004003 57 0 0.0 0.0 0.00 0.00 0.00 91 1021.0
20260903003003 57 22 0.0 1.0 0.00 0.00 0.00 90 1021.3
20260903002003 57 35 0.0 2.0 0.00 0.00 0.00 90 1021.0
20260903001003 58 0 0.0 0.0 0.00 0.00 0.00 89 1021.3
20260903000003 58 27 0.0 3.0 0.00 0.00 0.00 89 1021.0
20260902235003 58 10 0.0 1.0 0.00 0.00 0.00 90 1021.0
20260902234003 58 53 0.0 1.0 0.00 0.00 0.00 90 1020.6
20260902233003 59 59 0.0 1.0 0.00 0.00 0.00 89 1021.0
20260902232003 59 59 0.0 1.0 0.00 0.00 0.00 88 1021.0
20260902231003 60 75 0.0 2.0 0.00 0.00 0.00 85 1021.0
20260902230004 61 0 0.0 0.0 0.00 0.00 0.00 83 1021.3
20260902225003 62 79 0.0 2.0 0.00 0.00 0.00 81 1021.0
20260902224003 63 78 0.0 2.0 0.00 0.00 0.00 79 1021.0
20260902223003 64 74 1.0 3.0 0.00 0.00 0.00 78 1021.0
20260902222213 64 72 0.0 3.0 0.00 0.00 0.00 77 1021.0
20260902221213 65 93 0.0 1.0 0.00 0.00 0.00 75 1021.0
20260902220003 66 81 1.0 3.0 0.00 0.00 0.00 73 1021.0
20260902215213 66 81 0.0 3.0 0.00 0.00 0.00 71 1021.0
20260902214003 66 89 0.0 3.0 0.00 0.00 0.00 72 1021.3
20260902213003 67 95 0.0 3.0 0.00 0.00 0.00 69 1021.3
20260902212003 68 80 0.0 3.0 0.00 0.00 0.00 66 1021.0
20260902211003 69 68 0.0 2.0 0.00 0.00 0.00 62 1021.3
20260902210003 70 73 0.0 2.0 0.00 0.00 0.00 60 1021.3
20260902205003 70 97 0.0 2.0 0.00 0.00 0.00 58 1021.0
20260902204003 70 67 1.0 4.0 0.00 0.00 0.00 59 1021.3
20260902203003 71 78 0.0 3.0 0.00 0.00 0.00 57 1021.3
20260902202004 71 80 1.0 4.0 0.00 0.00 0.00 61 1021.0
20260902201003 71 62 1.0 6.0 0.00 0.00 0.00 62 1021.6
20260902200003 70 65 1.0 4.0 0.00 0.00 0.00 65 1021.3
20260902195003 70 81 1.0 3.0 0.00 0.00 0.00 61 1021.6
20260902194214 71 71 1.0 3.0 0.00 0.00 0.00 61 1021.3
20260902193003 71 90 1.0 4.0 0.00 0.00 0.00 62 1021.6